"America/Chicago Time","Lifetime Energy (kWh)","Power (W)","AC Volts RMS (V) ","AC Amps RMS (mA)","Grid Frequency (Hz)","Inverter Temperature (C)"
"07/07/12 10:51:23","147.5783","163.0","217.76","747","60.03","35"
"07/07/12 10:56:24","147.5911","165.6","217.45","752","60.03","34"
"07/07/12 11:01:25","147.604","166.1","216.93","762","60.03","35"
"07/07/12 11:06:23","147.6169","167.8","216.91","768","60.03","35"
"07/07/12 11:11:24","147.6301","168.6","216.84","774","59.96","35"
"07/07/12 11:16:24","147.6433","169.3","217.5","776","60.0","35"
"07/07/12 11:21:24","147.6566","170.9","218.44","770","60.0","36"
"07/07/12 11:26:23","147.6699","173.3","218.76","785","60.0","36"
"07/07/12 11:31:24","147.6835","174.7","218.02","791","60.03","36"
"07/07/12 11:36:24","147.6971","174.8","217.94","790","60.0","36"
"07/07/12 11:41:23","147.7107","175.4","217.3","801","60.0","36"
"07/07/12 11:46:23","147.7243","177.0","218.15","801","60.03","36"
"07/07/12 11:51:23","147.7382","178.3","217.81","814","60.03","36"
"07/07/12 11:56:24","147.7522","178.9","217.31","817","60.07","36"
"07/07/12 12:01:25","147.7661","178.5","216.94","816","60.03","36"
"07/07/12 12:06:23","147.7801","180.2","217.22","821","60.03","36"
"07/07/12 12:11:25","147.7942","181.0","217.83","818","60.03","36"
"07/07/12 12:16:23","147.8082","182.1","217.64","826","60.0","36"
"07/07/12 12:21:23","147.8223","180.0","217.98","817","60.0","36"
"07/07/12 12:26:24","147.8363","179.9","218.32","814","60.0","37"
"07/07/12 12:31:24","147.8505","182.7","218.06","825","60.0","36"
"07/07/12 12:36:23","147.8647","183.2","218.34","830","60.03","36"
"07/07/12 12:41:24","147.879","181.8","218.71","829","60.03","37"
"07/07/12 12:46:24","147.8932","182.6","217.96","830","60.0","36"
"07/07/12 12:51:25","147.9074","181.2","216.96","826","60.03","37"
"07/07/12 12:56:23","147.9215","180.0","217.05","823","60.03","37"
"07/07/12 13:01:25","147.9355","178.7","217.07","815","60.03","37"
"07/07/12 13:06:24","147.9495","179.2","218.34","819","60.03","37"
"07/07/12 13:11:25","147.9635","180.3","218.01","817","60.03","38"
"07/07/12 13:16:23","147.9774","178.4","217.6","816","60.0","38"
"07/07/12 13:21:23","147.9914","178.7","217.29","814","60.03","37"
"07/07/12 13:26:25","148.0053","177.2","217.21","807","60.0","38"
"07/07/12 13:31:25","148.0192","176.4","217.52","803","60.03","38"
"07/07/12 13:36:23","148.0329","175.8","216.44","802","60.0","38"
"07/07/12 13:41:24","148.0467","176.5","217.57","808","60.03","38"
"07/07/12 13:46:25","148.0603","175.1","217.51","798","60.0","38"
"07/07/12 13:51:23","148.0739","173.1","217.27","790","60.0","38"
"07/07/12 13:56:24","148.0874","174.1","217.94","790","60.03","38"
"07/07/12 14:01:24","148.1009","171.1","217.25","785","60.03","38"
"07/07/12 14:06:25","148.1142","169.9","217.1","784","60.03","38"
"07/07/12 14:11:23","148.1274","168.5","216.52","772","60.0","38"
"07/07/12 14:16:25","148.1404","166.5","216.98","760","60.03","38"
"07/07/12 14:21:23","148.1533","166.2","217.09","762","60.03","38"
"07/07/12 14:26:24","148.1662","164.8","217.38","756","60.0","38"
"07/07/12 14:31:25","148.179","161.5","217.25","741","60.0","38"
"07/07/12 14:36:23","148.1915","160.5","217.62","736","60.03","38"
"07/07/12 14:41:23","148.2039","158.5","217.58","726","60.03","38"
"07/07/12 14:46:24","148.2162","155.3","217.37","713","60.0","38"
"07/07/12 14:51:24","148.2283","153.5","216.4","707","60.03","38"
"07/07/12 14:56:25","148.2402","150.4","217.05","694","60.0","38"
"07/07/12 15:01:24","148.2519","150.2","217.05","690","60.03","38"
"07/07/12 15:06:23","148.2634","147.3","216.76","679","60.03","39"
"07/07/12 15:11:24","148.2748","145.0","216.5","673","60.0","39"
"07/07/12 15:16:24","148.286","141.0","216.66","657","60.03","39"
"07/07/12 15:21:24","148.2969","139.5","216.19","649","60.03","39"
"07/07/12 15:26:25","148.3077","138.3","216.84","644","60.03","39"
"07/07/12 15:31:24","148.3183","134.8","215.54","630","60.03","40"
"07/07/12 15:36:24","148.3287","132.8","214.76","624","60.0","40"
"07/07/12 15:41:25","148.339","129.5","216.09","605","60.03","40"
"07/07/12 15:46:24","148.3489","126.4","215.04","596","60.0","40"
"07/07/12 15:51:24","148.3587","124.3","216.13","585","60.0","40"
"07/07/12 15:56:24","148.3683","121.1","216.34","564","60.03","39"
"07/07/12 16:01:25","148.3776","117.0","216.39","555","60.03","40"
"07/07/12 16:06:23","148.3865","115.0","216.23","540","60.03","40"
"07/07/12 16:11:24","148.3954","111.6","216.19","529","60.03","39"
"07/07/12 16:16:25","148.404","109.5","215.56","524","60.07","39"
"07/07/12 16:21:23","148.4124","106.9","215.44","506","60.03","39"
"07/07/12 16:26:25","148.4206","103.2","215.21","497","60.0","38"
"07/07/12 16:31:23","148.4284","99.5","214.52","485","60.03","38"
"07/07/12 16:36:24","148.4361","96.4","215.41","465","60.03","39"
"07/07/12 16:41:24","148.4435","93.0","215.16","450","60.07","38"
"07/07/12 16:46:24","148.4505","90.3","214.19","438","60.0","38"
"07/07/12 16:51:23","148.4574","86.5","213.93","422","60.03","38"
"07/07/12 16:56:24","148.464","83.4","213.92","407","60.03","38"
"07/07/12 17:01:24","148.4704","79.4","214.87","393","60.0","38"
"07/07/12 17:06:24","148.4764","75.5","215.26","373","60.0","38"
"07/07/12 17:11:25","148.4821","72.0","214.08","360","60.03","38"
"07/07/12 17:16:23","148.4875","68.6","213.83","344","60.0","38"
"07/07/12 17:21:24","148.4927","64.9","213.81","325","60.0","38"
"07/07/12 17:26:24","148.4976","58.4","214.38","150","60.03","38"
"07/07/12 17:31:25","148.5018","39.1","214.23","278","60.0","38"
"07/07/12 17:36:23","148.5056","50.7","213.56","102","60.03","38"
"07/07/12 17:41:23","148.5096","43.1","213.84","316","60.03","37"
"07/07/12 17:46:23","148.5132","41.3","213.58","392","60.03","37"
"07/07/12 17:51:24","148.5166","47.1","214.11","357","60.07","37"
"07/07/12 17:56:24","148.5198","34.1","213.42","134","60.03","37"
"07/07/12 18:01:23","148.5226","30.4","214.05","132","60.0","36"
"07/07/12 18:06:23","148.5251","35.7","214.51","218","60.03","36"
"07/07/12 18:11:24","148.5275","37.8","214.17","161","60.03","36"
"07/07/12 18:16:23","148.5294","34.4","213.8","96","60.03","35"
"07/07/12 18:21:23","148.5312","17.7","213.6","16","60.03","35"
"07/07/12 18:26:25","148.5327","25.5","213.9","121","60.03","35"
"07/07/12 18:31:24","148.5341","14.0","213.53","214","60.03","35"
"07/07/12 18:36:23","148.5351","7.2","213.3","196","60.03","34"
"07/07/12 18:41:24","148.5361","12.4","212.85","10","60.03","34"
"07/07/12 18:46:24","148.5368","7.2","213.42","0","60.03","34"
"07/07/12 18:51:23","148.5375","0.0","212.67","0","60.03","33"
"07/07/12 18:56:25","148.538","14.3","213.05","0","60.03","33"
"07/07/12 19:01:24","148.5384","14.1","212.96","0","60.03","33"
"07/07/12 19:06:25","148.5387","0.0","213.37","0","60.03","32"
"07/07/12 19:11:25","148.5391","0.0","213.66","0","60.0","32"
"07/07/12 19:16:23","148.5394","13.6","213.86","73","60.03","32"
"07/07/12 19:21:25","148.5397","14.1","212.78","1","60.03","31"
"07/07/12 19:31:23","148.5402","0.0","212.97","0","60.03","30"
"07/07/12 19:41:23","148.5406","9.1","212.99","246","60.03","30"
"07/08/12 06:31:24","148.541","0.0","213.35","0","60.03","19"
"07/08/12 06:36:24","148.5412","7.4","213.34","0","60.03","19"
"07/08/12 06:41:24","148.5415","0.0","213.1","74","60.03","19"
"07/08/12 06:46:24","148.5419","12.1","213.2","5","60.03","20"
"07/08/12 06:51:24","148.5425","7.3","212.54","0","60.03","20"
"07/08/12 06:56:24","148.5431","0.0","212.55","195","60.03","20"
"07/08/12 07:01:24","148.5437","11.9","212.73","6","60.0","20"
"07/08/12 07:06:23","148.5444","8.1","212.93","182","60.0","20"
"07/08/12 07:11:23","148.546","36.4","213.46","175","60.0","21"
"07/08/12 07:16:24","148.5486","30.6","212.77","77","60.03","22"
"07/08/12 07:21:24","148.5515","33.7","214.35","165","60.0","22"
"07/08/12 07:26:25","148.5546","38.0","213.25","305","60.0","23"
"07/08/12 07:31:23","148.5581","54.6","214.04","211","60.0","23"
"07/08/12 07:36:24","148.5618","56.1","214.79","337","60.03","24"
"07/08/12 07:41:24","148.5659","51.1","215.55","294","60.03","24"
"07/08/12 07:46:24","148.5703","70.2","214.27","161","60.0","25"
"07/08/12 07:51:25","148.5744","62.1","215.88","331","60.03","25"
"07/08/12 07:56:23","148.5793","65.6","215.84","334","60.03","26"
"07/08/12 08:01:24","148.5846","70.0","216.32","346","60.03","26"
"07/08/12 08:06:25","148.5902","73.3","215.77","366","59.96","27"
"07/08/12 08:11:24","148.5961","77.0","215.71","381","60.0","28"
"07/08/12 08:16:24","148.6022","80.6","215.61","397","60.03","28"
"07/08/12 08:21:47","148.6091","85.0","215.9","416","60.03","29"
"07/08/12 08:26:24","148.6153","88.0","214.85","430","60.03","29"
"07/08/12 08:31:24","148.6223","91.5","215.66","443","60.0","29"
"07/08/12 08:36:23","148.6295","94.7","215.46","460","60.03","30"
"07/08/12 08:41:24","148.6371","98.6","216.23","474","60.03","30"
"07/08/12 08:46:25","148.6448","101.4","215.91","486","60.0","30"
"07/08/12 08:51:24","148.6529","104.5","216.05","500","60.0","31"
"07/08/12 08:56:24","148.6611","107.4","215.14","515","60.0","32"
"07/08/12 09:01:24","148.6696","110.3","215.39","526","60.0","32"
"07/08/12 09:06:25","148.6783","113.1","215.7","535","60.03","32"
"07/08/12 09:11:24","148.6871","115.3","215.61","547","60.0","33"
"07/08/12 09:16:24","148.6961","117.7","216.0","558","60.07","34"
"07/08/12 09:21:24","148.7054","120.4","216.14","562","60.0","34"
"07/08/12 09:26:24","148.7148","122.4","216.63","575","60.07","35"
"07/08/12 09:31:25","148.7244","124.2","216.36","582","60.03","36"
"07/08/12 09:36:24","148.7342","127.3","216.94","595","60.03","37"
"07/08/12 09:41:25","148.7442","129.8","216.12","609","60.03","37"
"07/08/12 09:46:24","148.7544","131.7","216.69","614","60.0","38"
"07/08/12 09:51:25","148.7647","134.3","215.74","628","60.0","38"
"07/08/12 09:56:24","148.7752","135.8","216.16","628","60.03","39"
"07/08/12 10:01:24","148.786","140.8","216.48","652","60.0","39"
"07/08/12 10:06:24","148.797","143.6","216.89","661","60.0","40"
"07/08/12 10:11:24","148.8083","144.7","216.41","670","60.03","40"
"07/08/12 10:16:24","148.8197","149.7","217.35","689","60.0","40"
"07/08/12 10:21:25","148.8315","150.5","217.34","693","60.0","40"
"07/08/12 10:26:25","148.8432","150.4","218.0","691","60.0","41"
"07/08/12 10:31:24","148.855","153.2","217.72","700","60.0","41"
"07/08/12 10:36:24","148.867","158.4","217.26","727","60.0","40"
"07/08/12 10:41:25","148.8795","161.1","218.41","733","60.03","39"
"07/08/12 10:46:25","148.8921","163.0","217.61","743","60.0","39"
"07/08/12 10:51:25","148.9048","163.9","216.84","753","60.0","38"
"07/08/12 10:56:25","148.9176","165.1","217.86","753","60.03","38"
"07/08/12 11:01:24","148.9304","165.9","218.66","759","60.03","38"
"07/08/12 11:06:24","148.9435","167.1","217.25","764","60.03","38"
"07/08/12 11:11:23","148.9565","168.3","217.18","769","60.03","38"
"07/08/12 11:16:25","148.9696","169.5","217.27","772","60.0","38"
"07/08/12 11:21:23","148.9829","170.8","217.74","779","60.03","38"
"07/08/12 11:26:24","148.9961","171.1","218.51","777","60.0","38"
"07/08/12 11:31:24","149.0095","171.3","219.01","778","60.0","39"
"07/08/12 11:36:24","149.0228","172.8","218.11","785","60.0","39"
"07/08/12 11:41:25","149.0364","174.0","218.34","790","60.03","39"
"07/08/12 11:46:24","149.0499","175.5","218.81","795","60.03","39"
"07/08/12 11:51:25","149.0636","174.4","217.15","792","60.03","39"
"07/08/12 11:56:23","149.077","174.6","217.78","797","60.03","40"
"07/08/12 12:01:24","149.0907","176.4","217.31","803","60.0","39"
"07/08/12 12:06:25","149.1044","177.4","217.51","809","60.03","39"
"07/08/12 12:11:24","149.1183","178.1","217.3","814","60.0","39"
"07/08/12 12:16:25","149.1322","177.8","217.61","808","60.03","39"
"07/08/12 12:21:23","149.146","178.3","217.78","813","60.0","39"
"07/08/12 12:26:24","149.1598","178.7","217.5","806","60.0","39"
"07/08/12 12:31:25","149.1738","177.5","217.77","802","60.0","39"
"07/08/12 12:36:24","149.1876","179.0","217.71","810","60.03","39"
"07/08/12 12:41:25","149.2016","180.0","217.64","816","60.03","38"
"07/08/12 12:46:23","149.2156","181.6","217.87","823","60.03","38"
"07/08/12 12:51:24","149.2297","180.3","216.77","819","60.03","38"
"07/08/12 12:56:24","149.2438","180.8","217.09","823","60.0","37"
"07/08/12 13:01:25","149.258","180.3","218.07","820","60.0","37"
"07/08/12 13:06:25","149.272","178.6","217.75","815","60.03","37"
"07/08/12 13:11:25","149.2858","178.3","217.57","808","60.0","37"
"07/08/12 13:16:23","149.2996","177.8","218.0","811","60.0","37"
"07/08/12 13:21:25","149.3135","177.4","217.54","805","60.0","37"
"07/08/12 13:26:25","149.3273","177.0","217.56","807","60.03","37"
"07/08/12 13:31:24","149.341","176.9","217.46","806","60.03","37"
"07/08/12 13:36:25","149.3547","173.6","217.05","793","60.03","38"
"07/08/12 13:41:24","149.3682","172.1","217.55","782","60.03","38"
"07/08/12 13:46:25","149.3815","171.1","217.95","772","60.0","38"
"07/08/12 13:51:25","149.3949","169.9","216.97","777","60.0","39"
"07/08/12 13:56:24","149.4079","169.9","217.97","776","60.0","39"
"07/08/12 14:01:25","149.4213","169.9","217.31","772","60.03","38"
"07/08/12 14:06:25","149.4345","167.9","217.24","771","60.03","38"
"07/08/12 14:11:24","149.4476","167.9","217.39","770","60.03","38"
"07/08/12 14:16:25","149.4605","164.1","217.35","752","60.03","39"
"07/08/12 14:21:24","149.4733","163.0","217.37","747","60.0","39"
"07/08/12 14:26:24","149.4859","162.3","217.2","741","60.0","39"
"07/08/12 14:31:25","149.4986","160.5","217.33","735","60.0","39"
"07/08/12 14:36:24","149.5109","158.9","217.82","729","60.03","39"
"07/08/12 14:41:24","149.5233","158.1","218.33","724","60.03","39"
"07/08/12 14:46:25","149.5355","155.6","217.41","710","60.03","39"
"07/08/12 14:51:25","149.5476","154.6","217.02","715","60.03","39"
"07/08/12 14:56:25","149.5596","151.4","216.54","701","60.03","39"
"07/08/12 15:01:24","149.5713","150.6","216.6","697","60.0","38"
"07/08/12 15:06:24","149.583","148.5","217.03","688","60.03","38"
"07/08/12 15:11:25","149.5945","145.7","217.69","670","60.0","39"
"07/08/12 15:16:25","149.6057","143.2","216.47","666","60.03","38"
"07/08/12 15:21:25","149.6168","140.6","216.97","649","60.03","38"
"07/08/12 15:26:24","149.6276","137.9","216.85","643","60.03","38"
"07/08/12 15:31:24","149.6382","136.2","216.97","635","60.0","38"
"07/08/12 15:36:24","149.6487","133.8","216.73","620","60.03","38"
"07/08/12 15:41:23","149.659","131.6","216.78","612","60.03","38"
"07/08/12 15:46:24","149.6692","128.5","216.91","603","60.0","37"
"07/08/12 15:51:23","149.6791","126.1","217.78","585","60.03","37"
"07/08/12 15:56:25","149.6888","122.8","217.33","575","60.03","36"
"07/08/12 16:01:25","149.6983","120.4","217.1","564","60.0","36"
"07/08/12 16:06:25","149.7074","115.8","217.11","547","60.0","36"
"07/08/12 16:11:25","149.7164","113.8","217.32","537","60.03","36"
"07/08/12 16:16:25","149.7251","111.2","216.6","528","60.0","36"
"07/08/12 16:21:24","149.7337","108.3","216.79","513","60.03","35"
"07/08/12 16:26:25","149.7419","104.3","215.24","497","60.0","35"
"07/08/12 16:31:24","149.7499","100.9","215.0","485","60.03","35"
"07/08/12 16:36:24","149.7576","98.2","215.81","472","60.03","35"
"07/08/12 16:41:24","149.7651","94.6","215.08","455","60.03","34"
"07/08/12 16:46:24","149.7724","91.4","215.03","442","60.03","34"
"07/08/12 16:51:25","149.7793","87.3","214.89","427","60.03","34"
"07/08/12 16:56:25","149.7859","84.3","215.09","409","60.03","34"
"07/08/12 17:01:25","149.7924","80.6","215.27","398","60.0","34"
"07/08/12 17:06:24","149.7984","77.4","214.65","384","60.0","33"
"07/08/12 17:11:25","149.8043","73.6","215.46","367","60.03","32"
"07/08/12 17:16:24","149.8099","69.7","214.84","349","60.03","32"
"07/08/12 17:21:25","149.8152","66.7","215.22","336","60.03","32"
"07/08/12 17:26:24","149.8201","62.6","214.75","319","60.03","32"
"07/08/12 17:31:24","149.8245","62.1","215.25","150","60.03","32"
"07/08/12 17:36:23","149.8283","49.2","215.42","142","60.03","32"
"07/08/12 17:41:24","149.8322","55.5","214.56","134","60.03","32"
"07/08/12 17:46:25","149.836","47.1","214.59","381","60.03","32"
"07/08/12 17:51:24","149.8396","39.1","214.29","215","60.07","31"
"07/08/12 17:56:25","149.8427","44.9","213.85","216","60.0","31"
"07/08/12 18:01:25","149.8457","40.4","214.25","129","60.0","31"
"07/08/12 18:06:24","149.8483","38.2","214.53","239","60.0","31"
"07/08/12 18:11:24","149.8507","31.6","213.39","243","60.0","31"
"07/08/12 18:16:25","149.8527","35.2","213.07","97","60.03","31"
"07/08/12 18:21:24","149.8545","30.3","213.64","242","60.03","31"
"07/08/12 18:26:25","149.8562","14.4","213.47","226","60.0","31"
"07/08/12 18:31:25","149.8582","28.2","214.26","228","60.07","31"
"07/08/12 18:36:25","149.8602","12.9","214.72","186","60.0","31"
"07/08/12 18:41:25","149.8617","11.1","213.67","46","60.0","30"
"07/08/12 18:46:25","149.8625","15.5","214.35","39","60.03","30"
"07/08/12 18:51:24","149.8633","10.7","213.54","9","60.03","29"
"07/08/12 18:56:24","149.8638","2.3","213.34","85","60.03","29"
"07/08/12 19:01:25","149.8643","0.0","214.35","0","60.0","28"
"07/08/12 19:06:24","149.8646","14.8","213.65","2","60.03","28"
"07/08/12 19:11:24","149.865","0.0","213.38","0","60.0","28"
"07/08/12 19:16:24","149.8655","0.0","213.55","0","60.03","28"
"07/08/12 19:21:24","149.8659","0.0","212.58","0","60.0","28"
"07/08/12 19:26:25","149.8662","0.0","212.69","0","60.03","27"
"07/08/12 19:31:24","149.8665","0.0","213.39","4","60.03","27"
"07/08/12 19:41:25","149.8671","0.0","213.15","0","60.03","27"
"07/08/12 19:51:26","149.8674","0.0","213.62","0","60.03","25"
"07/08/12 19:56:26","149.8674","0.0","213.59","0","60.03","25"
"07/08/12 20:01:23","149.8674","0.0","213.36","0","60.03","24"
"07/09/12 05:51:24","149.8677","0.0","214.57","0","60.03","17"
"07/09/12 05:56:25","149.8681","12.2","215.16","1","60.07","18"
"07/09/12 06:01:25","149.8687","10.4","214.77","1","60.03","18"
"07/09/12 06:06:25","149.8692","5.6","214.51","227","60.03","19"
"07/09/12 06:11:24","149.8698","0.0","214.15","0","60.03","19"
"07/09/12 06:16:24","149.8703","10.4","214.74","3","60.03","19"
"07/09/12 06:21:25","149.8707","0.0","214.7","0","60.03","20"
"07/09/12 06:26:25","149.8713","14.5","214.88","0","60.03","20"
"07/09/12 06:31:25","149.8721","10.8","212.45","76","60.03","20"
"07/09/12 06:36:25","149.873","15.1","212.62","47","60.03","20"
"07/09/12 06:41:25","149.8741","19.2","217.38","226","60.03","20"
"07/09/12 06:46:26","149.8753","13.3","213.63","32","60.07","21"
"07/09/12 06:51:24","149.8768","14.3","213.56","24","60.03","22"
"07/09/12 06:56:26","149.8783","12.4","214.7","182","60.03","22"
"07/09/12 07:01:24","149.8795","13.2","215.13","160","60.0","23"
"07/09/12 07:06:26","149.881","25.2","214.87","90","60.0","23"
"07/09/12 07:11:24","149.8835","37.4","213.84","70","60.03","23"
"07/09/12 07:16:25","149.8862","34.0","213.43","116","60.0","23"
"07/09/12 07:21:25","149.8894","37.2","214.6","99","60.0","24"
"07/09/12 07:26:25","149.893","52.9","214.86","300","60.07","24"
"07/09/12 07:31:26","149.8968","43.3","214.73","278","60.03","25"
"07/09/12 07:36:26","149.8996","48.5","213.88","323","60.03","25"
"07/09/12 07:41:25","149.9033","63.0","214.21","320","60.03","25"
"07/09/12 07:46:26","149.9069","15.8","213.68","184","60.03","25"
"07/09/12 07:51:24","149.9091","12.9","212.18","220","60.0","25"
"07/09/12 07:56:25","149.9137","69.7","213.93","354","60.0","26"
"07/09/12 08:01:24","149.919","75.0","214.56","374","60.03","26"
"07/09/12 08:06:24","149.9242","68.9","214.49","347","60.0","27"
"07/09/12 08:11:24","149.9289","71.6","214.74","358","60.03","27"
"07/09/12 08:16:25","149.9332","78.8","215.47","388","60.03","28"
"07/09/12 08:21:24","149.9398","86.4","216.82","418","60.03","28"
"07/09/12 08:26:26","149.9466","88.8","216.95","431","60.03","29"
"07/09/12 08:31:25","149.9537","92.5","216.11","442","59.96","30"
"07/09/12 08:36:25","149.9611","100.0","217.08","478","60.03","31"
"07/09/12 08:41:25","149.9693","111.7","215.49","531","60.0","32"
"07/09/12 08:46:24","149.9754","38.1","213.48","113","60.0","32"
"07/09/12 08:51:26","149.9805","127.0","216.6","596","60.03","32"
"07/09/12 08:56:25","149.989","118.3","216.26","559","60.03","32"
"07/09/12 09:01:25","149.9981","39.7","215.51","93","60.0","33"
"07/09/12 09:06:24","150.0069","119.4","218.25","559","60.0","33"
"07/09/12 09:11:26","150.0163","120.2","215.93","561","60.03","33"
"07/09/12 09:16:25","150.0257","121.8","217.38","570","60.03","34"
"07/09/12 09:21:25","150.0352","122.8","217.02","567","60.0","35"
"07/09/12 09:26:24","150.0448","124.2","215.78","586","60.0","36"
"07/09/12 09:31:25","150.0545","125.4","216.45","586","60.03","37"
"07/09/12 09:36:24","150.0643","127.3","217.31","589","60.0","38"
"07/09/12 09:41:25","150.0744","131.2","217.9","607","60.03","38"
"07/09/12 09:46:25","150.0847","133.8","218.01","619","60.03","38"
"07/09/12 09:51:24","150.0952","136.4","217.29","628","60.03","38"
"07/09/12 09:56:24","150.1058","139.7","217.66","641","60.03","38"
"07/09/12 10:01:24","150.1169","143.1","216.83","665","60.03","38"
"07/09/12 10:06:25","150.1281","145.4","217.2","670","60.0","38"
"07/09/12 10:11:24","150.1395","148.5","218.26","679","60.03","39"
"07/09/12 10:16:24","150.1515","170.2","218.71","773","60.03","39"
"07/09/12 10:21:26","150.16","61.7","214.95","313","60.03","38"
"07/09/12 10:26:25","150.1639","28.0","215.09","245","60.0","35"
"07/09/12 10:31:26","150.1659","19.0","214.37","46","60.03","33"
"07/09/12 10:36:25","150.1676","26.2","214.85","69","60.0","31"
"07/09/12 10:41:24","150.1703","36.3","214.89","240","60.0","30"
"07/09/12 10:46:25","150.1803","131.8","214.93","617","60.03","30"
"07/09/12 10:51:25","150.1925","194.7","216.93","888","60.0","31"
"07/09/12 10:56:25","150.2019","168.2","218.64","766","60.03","31"
"07/09/12 11:01:24","150.2109","73.6","216.02","366","60.03","31"
"07/09/12 11:06:24","150.22","82.8","215.78","402","60.03","31"
"07/09/12 11:11:25","150.2269","60.1","214.8","376","60.0","30"
"07/09/12 11:16:26","150.23","40.7","214.67","290","60.03","29"
"07/09/12 11:21:24","150.2337","93.2","216.23","451","60.03","28"
"07/09/12 11:26:24","150.2455","196.3","218.38","895","60.0","29"
"07/09/12 11:31:25","150.2599","195.1","218.88","879","60.03","31"
"07/09/12 11:36:26","150.2751","195.3","217.45","888","60.03","32"
"07/09/12 11:41:24","150.2845","64.2","214.26","329","60.03","32"
"07/09/12 11:46:25","150.2893","151.6","216.2","700","60.0","31"
"07/09/12 11:51:25","150.2966","94.4","214.59","459","60.07","30"
"07/09/12 11:56:25","150.3083","104.1","214.99","501","60.03","31"
"07/09/12 12:01:26","150.3156","98.9","215.24","479","60.03","30"
"07/09/12 12:06:24","150.3247","194.9","217.78","868","60.07","31"
"07/09/12 12:11:24","150.3392","153.8","217.19","711","60.03","32"
"07/09/12 12:16:25","150.3537","190.6","217.85","864","60.03","35"
"07/09/12 12:21:24","150.3682","194.7","216.02","883","60.0","36"
"07/09/12 12:26:24","150.382","192.6","215.61","881","60.0","37"
"07/09/12 12:31:24","150.3964","185.1","216.78","839","60.0","38"
"07/09/12 12:36:25","150.4112","194.5","217.21","877","60.03","39"
"07/09/12 12:41:24","150.4183","38.7","214.36","311","60.0","38"
"07/09/12 12:46:25","150.4219","52.3","213.95","292","60.03","37"
"07/09/12 12:51:24","150.4282","86.3","215.5","423","60.03","36"
"07/09/12 12:56:25","150.4404","197.4","218.23","890","60.07","37"
"07/09/12 13:01:26","150.4537","190.5","217.71","860","60.03","38"
"07/09/12 13:06:24","150.4641","68.8","215.12","348","60.0","38"
"07/09/12 13:11:26","150.4716","46.4","214.41","353","60.03","37"
"07/09/12 13:16:24","150.4856","194.3","216.86","883","60.0","39"
"07/09/12 13:21:25","150.4977","55.3","214.69","258","60.03","38"
"07/09/12 13:26:24","150.5024","108.1","215.35","513","60.0","38"
"07/09/12 13:31:25","150.5165","180.7","217.39","823","60.03","39"
"07/09/12 13:36:25","150.5303","174.9","217.95","798","60.03","39"
"07/09/12 13:41:24","150.5438","172.5","217.78","785","60.0","39"
"07/09/12 13:46:25","150.5573","173.1","218.07","785","60.03","39"
"07/09/12 13:51:25","150.5709","171.1","217.9","776","60.0","40"